Regional Weather Roundup
Issued by NWS

Home | Current Version | Previous Version | Graphics & Text | Print | Product List | Glossary On
Versions: 1 2 3 4 5 6 7 8 9 10 11 12 13 14 15 16 17 18 19 20 21 22 23 24 25 26 27 28 29 30 31 32 33 34 35 36 37 38 39 40 41 42 43 44 45 46 47 48 49 50
000
ASUS45 KABQ 280101
RWRNM
NEW MEXICO REGIONAL WEATHER ROUNDUP
NATIONAL WEATHER SERVICE ALBUQUERQUE NM
700 PM MDT THU AUG 27 2015

NOTE: "FAIR" MEANS FEW OR NO CLOUDS BELOW 12,000 FEET AGL WITH NO
       SIGNIFICANT WEATHER OR OBSTRUCTIONS TO VISION.

      THIS PRODUCT IS RELEASED AS TWO VERSIONS.  ONE VERSION NEAR
      THE TOP OF THE HOUR CONTAINING PRELIMINARY DATA FROM ALBUQUERQUE
      AND OTHER STATIONS.  A FINAL VERSION WITH ADDITIONAL DATA IS
      ISSUED ABOUT 10 MINUTES AFTER THE HOUR.

NMZ501-503-504-510>518-280200-
NORTHWEST PLATEAU/NORTHCENTRAL MOUNTAINS

CITY           SKY/WX    TMP DP  RH WIND       PRES   REMARKS
FARMINGTON     CLEAR     82  48  30 W17G24    30.16F
LOS ALAMOS     PTCLDY    74  44  33 NW6       30.29F
SANTA FE       PTCLDY    79  49  34 N9        30.20F
TAOS           MOCLDY    68  46  45 N9        30.30S

$$
NMZ402-403-502-505>509-280200-
WESTCENTRAL MOUNTAINS/SOUTHWEST MOUNTAINS

CITY           SKY/WX    TMP DP  RH WIND       PRES   REMARKS
GALLUP         CLOUDY    70  52  52 SW9       30.27S
GRANTS         MOCLDY    73  58  59 CALM      30.29R
SILVER CITY      N/A     79  55  44 NW10      30.22R

$$
NMZ407-409-411-412-280200-
SOUTHERN DESERTS

CITY           SKY/WX    TMP DP  RH WIND       PRES   REMARKS
DEMING         CLOUDY    88  50  27 NW14      30.10R
LAS CRUCES     MOCLDY    88  52  29 W5        30.11R
HOLLOMAN AFB   MOCLDY    86  55  35 NE5       30.06S
ALAMOGORDO     MOCLDY    86  50  28 N5        30.09R
T OR C         CLOUDY    84  52  33 W13       30.13R

$$
NMZ519>523-280200-
CENTRAL VALLEYS/CENTRAL HIGHLANDS

CITY           SKY/WX    TMP DP  RH WIND       PRES   REMARKS
ALBUQUERQUE    CLOUDY    81  55  40 S14       30.17S
DOUBLE EAGLE   MOCLDY    79  55  44 SW9       30.21S
MORIARTY ARPT  FAIR      75  52  43 SW8       30.23S
CLINES CORNERS MOCLDY    72  49  44 W18       30.26F
BELEN          FAIR      76  59  55 SW5       30.16
SOCORRO        FAIR      79  56  44 CALM      30.14F

$$
NMZ524>526-539-540-280200-
SOUTHCENTRAL MOUNTAINS

CITY           SKY/WX    TMP DP  RH WIND       PRES   REMARKS
RUIDOSO        CLOUDY    63  57  82 MISG      30.33R

$$
NMZ527>531-280200-
NORTHEAST HIGHLANDS/NORTHEAST PLAINS

CITY           SKY/WX    TMP DP  RH WIND       PRES   REMARKS
LAS VEGAS      PTCLDY    76  45  33 W13       30.22F
RATON          MOCLDY    76  45  33 W7        30.13F
CLAYTON        MOCLDY    80  55  42 S12       30.03F

$$
NMZ532>537-280200-
EASTCENTRAL PLAINS

CITY           SKY/WX    TMP DP  RH WIND       PRES   REMARKS
TUCUMCARI      MOCLDY    85  52  32 SW18G28   30.02R
CANNON AFB     CLOUDY    81  57  43 SW8       30.07F
CLOVIS AIRPORT MOCLDY    77  55  47 SW10      30.08F

$$
NMZ028-029-538-280200-
SOUTHEAST PLAINS

CITY           SKY/WX    TMP DP  RH WIND       PRES   REMARKS
ROSWELL        CLOUDY    85  59  41 NE6       30.05S
ARTESIA        MOCLDY    90  55  31 CALM      30.04S
CARLSBAD       NOT AVBL


$$


USA.gov is the U.S. government's official web portal to all federal, state and local government web resources and services.